Erie, PA

2:40 AM EST on December 04, 2016 (GMT -0500)
Erie International

Weather History for KERI - August, 2013

Change the Weather History Date:

Thursday, August 15, 2013

  Actual Average Record
Temperature  
Mean Temperature 62 °F 71 °F  
Max Temperature 71 °F 79 °F 92 °F (1959)
Min Temperature 53 °F 63 °F 50 °F (1968)
Degree Days  
Heating Degree Days 3 0  
Month to date heating degree days 9 0  
Since 1 June heating degree days 80 68  
Since 1 July heating degree days 12 7  
Cooling Degree Days 0 6  
Month to date cooling degree days 56 98  
Year to date cooling degree days 506 473  
Since 1 June cooling degree days 421 434  
Growing Degree Days 12 (Base 50)    
Moisture  
Dew Point 51 °F    
Average Humidity 68    
Maximum Humidity 89    
Minimum Humidity 47    
Precipitation  
Precipitation 0.00 in 0.11 in 0.73 in (1981)
Month to date precipitation 2.23 1.72  
Year to date precipitation 32.36 24.08  
Snow  
Snow 0.00 in 0.00 in - ()
Month to date snowfall 0.0 0.0  
Since 1 June snowfall 0.0 0.0  
Since 1 July snowfall 0.0 0.0  
Snow Depth 0.00 in    
Sea Level Pressure  
Sea Level Pressure 30.15 in    
Wind  
Wind Speed 7 mph (SW)    
Max Wind Speed 12 mph    
Max Gust Speed 20 mph    
Visibility 10 miles    
Events      
T = Trace of Precipitation, MM = Missing Value Source: NWS Daily Summary

Daily Weather History Graph

Daily Weather History Graph

Search for Another Location

Airport or City:

Trip Planner

Search our weather history database for the weather conditions in past years. The results will help you decide how hot, cold, wet, or windy it might be!

Date:

Astronomy

Aug. 15, 2013 Rise Set
Actual Time 6:28 AM EDT 8:20 PM EDT
Civil Twilight 5:58 AM EDT 8:50 PM EDT
Nautical Twilight 5:21 AM EDT 9:27 PM EDT
Astronomical Twilight 4:42 AM EDT 10:06 PM EDT
Moon 3:38 PM EDT (8/15) 12:35 AM EDT (8/15)
Length of Visible Light 14h 52m
Length of Day
13h 52m
Waxing Gibbous, 64% of the Moon is Illuminated
Aug 15
Waxing Gibbous
Aug 20
Full
Aug 28
Last Quarter
Sep 5
New
Sep 12
First Quarter

Hourly Weather History & Observations

Time (EDT) Temp. Dew Point Humidity Pressure Visibility Wind Dir Wind Speed Gust Speed Precip Events Conditions
12:51 AM 57.0 °F 51.1 °F 81% 30.15 in 10.0 mi South 4.6 mph - N/A   Clear
1:51 AM 55.0 °F 51.1 °F 86% 30.15 in 10.0 mi South 4.6 mph - N/A   Clear
2:51 AM 54.0 °F 50.0 °F 86% 30.14 in 10.0 mi South 5.8 mph - N/A   Clear
3:51 AM 53.1 °F 48.9 °F 86% 30.14 in 10.0 mi South 5.8 mph - N/A   Clear
4:51 AM 53.1 °F 48.0 °F 83% 30.14 in 10.0 mi South 5.8 mph - N/A   Clear
5:51 AM 53.1 °F 48.0 °F 83% 30.15 in 10.0 mi South 5.8 mph - N/A   Clear
6:51 AM 53.1 °F 46.9 °F 80% 30.17 in 10.0 mi South 6.9 mph - N/A   Partly Cloudy
7:51 AM 57.0 °F 48.0 °F 72% 30.17 in 10.0 mi South 6.9 mph - N/A   Overcast
8:51 AM 61.0 °F 52.0 °F 72% 30.17 in 10.0 mi South 6.9 mph - N/A   Scattered Clouds
9:51 AM 63.0 °F 52.0 °F 67% 30.17 in 10.0 mi SSW 8.1 mph - N/A   Overcast
10:51 AM 64.9 °F 52.0 °F 63% 30.18 in 10.0 mi SSW 11.5 mph - N/A   Overcast
11:51 AM 69.1 °F 55.0 °F 61% 30.17 in 10.0 mi Variable 5.8 mph - N/A   Mostly Cloudy
12:51 PM 69.1 °F 50.0 °F 51% 30.17 in 10.0 mi West 6.9 mph - N/A   Mostly Cloudy
1:51 PM 70.0 °F 48.9 °F 47% 30.16 in 10.0 mi West 10.4 mph - N/A   Clear
2:51 PM 70.0 °F 50.0 °F 49% 30.15 in 10.0 mi West 8.1 mph 19.6 mph N/A   Clear
3:51 PM 70.0 °F 51.1 °F 51% 30.14 in 10.0 mi WNW 10.4 mph - N/A   Partly Cloudy
4:51 PM 71.1 °F 52.0 °F 51% 30.13 in 10.0 mi West 11.5 mph - N/A   Scattered Clouds
5:51 PM 68.0 °F 52.0 °F 56% 30.13 in 10.0 mi WNW 8.1 mph - N/A   Partly Cloudy
6:51 PM 68.0 °F 52.0 °F 56% 30.13 in 10.0 mi West 5.8 mph - N/A   Overcast
7:51 PM 66.9 °F 50.0 °F 54% 30.14 in 10.0 mi West 5.8 mph - N/A   Scattered Clouds
8:51 PM 63.0 °F 52.0 °F 67% 30.14 in 10.0 mi SSW 4.6 mph - N/A   Clear
9:51 PM 61.0 °F 53.1 °F 75% 30.16 in 10.0 mi South 3.5 mph - N/A   Clear
10:51 PM 59.0 °F 52.0 °F 78% 30.15 in 10.0 mi South 4.6 mph - N/A   Partly Cloudy
11:51 PM 57.9 °F 51.1 °F 78% 30.15 in 10.0 mi South 4.6 mph - N/A   Mostly Cloudy